Tracking 19795 objects as of 20-Jul-2019
HD Live streaming from Space Station
objects crossing your sky now

NOAA 16 DEB

Track NOAA 16 DEB now!
10-day predictions


NORAD ID: 42353
Int'l Code: 2000-055QV
Perigee: 763.6 km
Apogee: 847.2 km
Inclination: 98.8 °
Period: 100.8 minutes
Semi major axis: 7176 km
RCS: Unknown
Launch date: September 21, 2000
Source: United States (US)
Launch site: AIR FORCE WESTERN TEST RANGE (AFWTR)

Note: This is SATELLITE DEBRIS
aabbcc
Your satellite tracking list
Your tracking list is empty




NASA's NSSDC Master Catalog

Two Line Element Set (TLE):
1 42353U 00055QV  19200.52237030 +.00001389 +00000-0 +56741-3 0  9998
2 42353 098.8018 295.4238 0058243 206.4987 153.3213 14.28035937180340
Source of the keplerian elements: AFSPC